Temperature
7 7 8 7 8 8 9 9 9 9 9 9 9 9 9 9 9 10 10 11 11 12 12 12 12 13 13 13 14 14 14 14 15 15 15 16 16 16 16 16 16 16 16
6 7 7 7 8 8 9 9 9 9 9 8 8 8 8 8 8 8 8 9 9 10 10 11 11 12 12 12 13 14 14 14 14 15 15 15 15 15 16 16 16 16 16
7 7 7 8 8 8 8 8 8 8 8 7 7 7 7 7 7 7 7 7 8 8 8 9 10 10 11 11 12 12 13 13 14 14 15 14 14 15 15 16 16 16 16
7 7 8 8 7 8 8 8 7 7 7 6 6 6 6 6 6 6 6 6 6 6 7 7 8 8 9 9 10 11 11 12 13 14 14 14 14 14 15 15 15 16 16
7 7 7 7 7 7 7 7 6 6 6 6 6 5 5 5 5 5 5 5 5 5 5 5 6 7 7 8 8 9 10 11 12 13 13 13 14 14 14 15 15 15 15
7 7 7 8 7 7 7 6 5 5 5 5 5 5 5 5 5 5 5 5 4 4 4 4 5 5 6 6 7 8 9 10 11 11 12 13 13 13 14 14 14 15 15
7 7 7 7 7 7 6 5 5 5 4 4 4 4 4 4 4 4 4 4 4 4 4 4 4 4 4 5 6 7 7 8 9 10 11 12 12 12 13 13 14 14 15
7 7 7 7 6 6 5 5 5 4 4 4 4 4 4 4 4 4 4 4 4 3 3 3 3 3 3 4 4 5 6 7 8 8 9 10 11 12 12 12 13 14 14
6 6 6 6 6 5 5 4 4 4 4 4 4 4 4 4 4 4 3 3 3 3 3 3 3 3 3 3 4 4 5 6 6 6 8 9 10 11 11 11 12 13 13
6 6 6 5 5 5 4 4 4 4 4 4 4 4 4 3 3 3 3 3 3 2 2 2 2 2 3 3 3 3 4 4 5 5 6 7 8 9 10 11 11 12 13
5 5 5 5 4 4 4 3 3 3 3 3 3 3 3 3 3 2 2 2 2 2 2 2 1 2 2 2 2 2 3 2 3 4 5 6 7 8 9 10 10 11 12
4 5 5 4 4 3 3 3 3 3 3 2 2 2 2 2 1 1 1 1 1 1 1 0 0 0 0 0 1 1 1 1 2 2 3 5 6 7 7 8 9 10 10
4 4 4 4 3 3 2 2 2 2 2 1 1 1 1 0 0 0 -0 -0 -0 -1 -1 -1 -1 -2 -2 -2 -1 -1 -1 -1 -0 1 2 4 5 5 6 7 8 9 10
4 4 3 3 2 2 2 1 1 1 1 0 0 -0 -0 -1 -1 -1 -2 -2 -3 -3 -3 -3 -3 -3 -3 -3 -3 -2 -2 -2 -2 -1 0 2 4 4 5 6 7 8 9
3 3 3 2 2 1 1 1 0 0 -0 -0 -1 -1 -2 -2 -3 -3 -4 -4 -5 -5 -5 -5 -5 -5 -5 -5 -4 -4 -3 -3 -2 -2 -2 0 2 3 4 4 5 6 7
3 3 2 1 1 1 0 0 -0 -0 -1 -1 -2 -2 -3 -4 -5 -6 -6 -6 -7 -7 -7 -7 -7 -7 -7 -6 -6 -6 -5 -4 -3 -3 -2 -2 1 2 3 3 3 4 5
3 2 1 1 1 0 0 -0 -0 -1 -1 -2 -3 -4 -5 -5 -6 -7 -7 -8 -8 -8 -9 -9 -9 -8 -8 -8 -7 -7 -6 -5 -4 -4 -3 -2 -1 1 2 2 2 3 4
2 1 1 1 0 0 0 -0 -0 -1 -2 -3 -3 -4 -5 -6 -6 -7 -8 -9 -9 -9 -10 -10 -10 -9 -9 -9 -9 -8 -7 -6 -5 -4 -4 -3 -2 -1 -0 -0 0 1 2
2 1 1 0 0 0 0 -0 -1 -2 -2 -3 -4 -5 -5 -6 -7 -8 -9 -9 -10 -10 -10 -10 -10 -10 -10 -10 -9 -9 -8 -7 -6 -5 -4 -3 -3 -2 -2 -1 -1 0 2
1 1 0 -0 -0 -0 -0 -1 -1 -2 -3 -3 -4 -5 -6 -7 -8 -9 -10 -10 -11 -11 -11 -11 -11 -11 -11 -11 -10 -10 -9 -8 -7 -5 -5 -4 -3 -3 -3 -2 -2 -1 0
1 1 -0 -0 -1 -1 -1 -1 -2 -3 -3 -4 -5 -6 -7 -8 -9 -10 -10 -11 -11 -11 -11 -12 -12 -11 -11 -11 -11 -10 -9 -8 -6 -5 -5 -5 -4 -4 -4 -3 -3 -2 -1
1 0 -0 -1 -1 -1 -2 -2 -3 -4 -5 -6 -6 -7 -8 -9 -9 -10 -11 -11 -12 -12 -12 -12 -12 -12 -12 -12 -11 -11 -10 -8 -5 -6 -6 -5 -5 -4 -4 -4 -3 -3 -2
1 0 -0 -1 -1 -2 -2 -3 -3 -4 -6 -7 -7 -7 -8 -9 -10 -10 -11 -11 -12 -12 -12 -12 -12 -12 -12 -12 -12 -12 -11 -9 -10 -8 -6 -6 -5 -5 -5 -4 -4 -3 -2
1 0 -1 -1 -2 -2 -3 -3 -4 -5 -6 -7 -8 -8 -9 -9 -10 -10 -11 -12 -12 -12 -12 -12 -12 -13 -13 -12 -12 -12 -12 -12 -11 -10 -8 -7 -6 -6 -5 -5 -4 -3 -2
1 -0 -1 -1 -2 -2 -3 -4 -4 -6 -6 -7 -8 -9 -9 -9 -10 -10 -11 -11 -11 -12 -12 -12 -12 -12 -13 -13 -12 -12 -12 -12 -11 -11 -9 -8 -7 -6 -6 -5 -5 -4 -3
0 -0 -1 -2 -2 -3 -3 -4 -5 -6 -7 -7 -8 -9 -10 -10 -10 -10 -11 -11 -11 -11 -12 -12 -12 -12 -12 -13 -12 -12 -12 -12 -11 -10 -10 -9 -8 -7 -6 -5 -5 -4 -3
Wind_Speed
12 18 22 24 24 25 26 26 27 27 27 27 28 28 28 29 29 29 30 30 30 30 29 29 29 29 29 29 29 29 28 28 27 26 25 21 17 15 15 13 11 10 7
13 16 19 22 23 24 25 26 26 26 27 27 28 28 28 28 28 28 29 29 29 29 29 29 29 28 28 28 29 29 28 28 28 28 28 22 15 13 14 15 12 12 9
13 15 18 22 22 23 24 25 25 26 26 27 28 28 28 29 29 28 29 29 29 29 28 28 28 28 28 28 28 28 28 29 29 29 27 18 15 13 13 15 15 14 14
13 14 18 21 22 23 24 24 25 25 26 27 27 28 28 29 29 28 29 28 28 28 28 28 28 28 28 28 28 28 28 28 29 28 20 18 18 15 15 16 17 16 15
12 14 18 21 21 22 23 24 24 24 25 26 27 27 28 28 28 28 28 28 28 28 28 28 28 28 29 29 28 28 28 28 29 24 19 18 18 18 19 19 18 18 17
12 14 17 21 21 22 22 23 23 24 24 25 26 27 27 27 28 28 28 28 28 28 28 28 28 28 28 29 29 29 28 28 27 21 19 19 18 20 23 22 20 19 19
12 14 16 20 20 21 22 22 22 23 24 24 25 26 26 27 27 27 27 28 28 28 28 28 28 28 28 28 28 29 28 28 25 21 18 18 18 21 24 25 23 21 20
11 13 14 16 18 19 21 22 21 22 22 23 24 25 26 26 26 26 27 28 28 28 28 28 28 28 28 28 28 28 28 27 24 21 18 18 18 22 24 25 25 23 21
11 12 13 15 16 16 17 20 19 20 21 21 22 24 25 24 24 25 25 27 28 28 28 28 28 29 28 28 27 27 28 28 23 18 19 17 18 23 25 26 26 25 23
9 11 13 14 15 15 14 16 17 18 20 20 21 23 24 22 22 23 24 26 27 28 28 28 29 29 29 27 25 26 27 24 18 19 17 17 21 24 26 26 26 26 25
8 10 12 14 14 14 13 13 15 15 18 19 19 22 21 20 20 21 23 25 26 27 27 27 28 29 28 24 24 25 23 16 20 18 17 19 23 25 26 26 26 26 26
9 9 11 13 14 14 12 12 13 14 15 16 17 19 18 18 18 19 21 22 24 25 24 24 27 25 22 20 22 23 17 19 19 17 17 23 25 26 27 26 27 27 27
7 8 10 12 13 13 12 12 11 12 13 14 16 18 18 17 16 17 18 18 20 21 20 22 21 19 20 20 21 20 20 19 16 17 19 24 26 27 27 27 27 27 27
7 8 9 10 12 12 12 11 11 11 12 13 14 16 17 15 16 17 16 18 18 17 19 19 18 21 22 22 22 22 22 19 18 18 20 25 27 27 28 28 27 27 27
6 7 9 9 11 12 11 11 11 11 12 13 13 14 17 16 16 17 17 17 18 18 18 19 20 21 22 21 20 21 22 23 22 21 19 24 27 28 28 27 27 27 27
5 7 8 8 10 11 11 11 11 11 12 13 13 15 16 16 16 17 17 18 18 18 19 20 21 21 19 19 20 21 22 23 22 21 21 22 25 26 26 25 25 25 25
4 5 7 8 10 11 12 12 11 12 13 12 13 14 15 17 17 18 17 17 18 19 21 20 20 19 17 18 19 20 20 21 22 22 22 20 20 22 22 22 22 23 23
2 4 6 8 10 12 12 12 11 12 13 12 13 13 16 18 18 18 17 17 19 20 19 18 16 16 16 17 17 17 17 18 21 22 21 20 17 16 17 18 19 20 21
1 4 6 8 10 12 12 12 12 12 12 12 12 13 17 18 18 18 17 17 20 19 18 17 15 16 17 18 17 17 17 17 18 19 19 18 16 15 14 14 16 18 19
0 3 5 8 10 12 11 11 10 11 11 11 12 14 17 17 18 18 17 18 19 16 15 15 18 18 17 17 18 18 18 18 17 16 15 13 12 12 12 12 13 13 16
1 3 5 8 9 10 9 9 9 10 9 11 12 15 16 17 18 18 17 18 18 15 16 18 18 19 17 16 17 18 18 18 16 12 10 10 10 10 11 12 12 12 12
1 2 5 7 8 9 9 9 8 10 9 10 12 14 15 17 18 17 18 18 18 16 18 18 18 16 16 15 15 17 14 14 7 9 11 11 10 9 10 12 13 13 13
2 2 4 6 7 9 10 9 9 8 7 8 11 11 16 18 18 18 19 19 19 17 16 19 19 19 17 16 14 12 10 9 14 11 12 9 10 10 12 12 13 14 14
2 0 3 5 7 8 9 9 11 9 10 12 10 11 17 17 18 18 19 20 20 18 18 18 18 17 18 16 14 13 13 14 12 10 10 12 14 13 13 12 12 13 13
3 0 3 5 6 7 9 9 10 10 10 10 11 13 14 16 17 18 19 20 20 18 19 19 19 18 15 15 14 14 14 13 15 14 15 14 13 12 12 13 12 11 12
4 1 2 4 5 7 8 9 9 11 12 13 14 14 13 12 15 18 21 20 20 19 18 18 17 18 16 16 14 13 13 12 12 12 14 15 14 13 14 12 12 10 10
Wind_Direction
352 350 353 1 8 12 15 16 16 16 16 16 15 15 14 12 11 10 8 6 4 3 2 1 0 359 358 357 356 354 352 350 349 346 340 329 315 309 310 309 293 276 261
347 351 355 6 10 13 15 16 16 16 16 15 15 14 13 12 10 9 7 5 3 1 360 359 358 356 355 354 352 351 349 348 346 343 335 321 305 302 304 304 297 287 290
1 357 1 10 12 14 16 16 17 16 16 15 14 13 12 11 9 8 6 4 2 360 358 357 355 354 352 351 349 347 346 345 344 340 329 320 316 306 305 303 297 283 274
9 5 7 12 14 16 17 17 17 16 16 15 14 13 11 9 8 6 5 2 0 359 357 355 353 351 350 348 346 344 343 342 341 334 328 327 320 313 311 304 298 289 276
19 14 12 15 17 18 18 18 17 16 15 14 13 11 10 8 6 4 3 0 359 357 355 353 351 349 347 345 343 341 341 339 337 327 328 327 321 317 317 308 299 292 283
25 20 17 19 20 21 20 19 18 16 15 13 11 9 8 6 3 2 1 358 356 355 353 351 348 346 344 342 340 338 338 338 331 325 324 322 319 321 321 314 302 291 282
27 22 21 22 22 23 22 20 18 15 14 11 9 7 4 2 360 358 357 355 353 352 350 348 346 344 342 339 337 335 334 333 327 320 318 315 314 318 319 318 311 298 283
28 23 23 23 24 23 22 19 16 13 11 9 6 4 1 359 357 355 354 352 349 348 346 345 343 341 338 336 333 332 331 329 322 314 313 309 309 316 317 317 316 307 294
31 27 24 22 20 19 18 16 12 11 8 6 4 2 359 356 354 352 351 349 346 345 343 341 339 337 335 332 329 328 327 324 313 310 309 304 309 314 313 313 312 311 305
34 29 24 21 17 11 8 10 7 7 6 4 2 360 356 352 350 349 348 345 343 342 339 337 335 334 332 328 325 324 324 317 311 311 304 301 308 309 309 308 308 306 306
37 31 24 19 14 7 2 359 359 1 2 1 359 357 353 349 347 344 342 340 340 338 336 334 333 331 329 325 323 323 318 313 313 305 299 300 305 305 304 303 302 302 301
32 27 22 17 11 4 358 354 356 358 357 358 355 353 349 344 341 339 336 335 335 334 332 332 330 328 328 324 322 321 315 312 307 301 298 300 301 301 300 299 298 297 296
33 26 21 15 7 2 356 353 354 353 352 351 351 349 344 341 337 337 335 333 332 331 331 329 327 327 323 319 316 313 310 309 303 300 297 298 298 298 297 296 294 292 290
35 25 17 11 4 359 354 350 352 350 348 347 345 346 345 339 335 335 331 329 328 327 326 325 321 319 317 313 311 309 307 304 300 298 294 294 295 295 294 292 289 286 284
34 24 15 2 0 355 350 347 348 348 346 342 341 343 343 336 332 330 325 324 322 321 321 320 317 316 313 311 308 306 304 302 298 294 291 291 292 291 290 287 285 282 281
33 21 9 358 357 351 348 346 345 344 342 340 339 339 339 334 328 325 321 320 318 319 318 315 313 312 310 308 305 304 301 298 295 293 291 290 287 286 286 284 282 280 279
35 13 5 353 350 347 344 344 343 343 342 339 337 335 336 334 328 325 320 318 318 318 316 313 311 310 308 307 304 302 300 297 294 292 290 286 284 282 279 279 280 280 279
31 6 0 349 343 345 344 342 342 342 341 338 336 335 338 336 333 328 322 320 319 318 315 313 311 310 308 306 304 302 299 295 292 290 288 282 278 277 278 277 280 282 282
26 359 352 348 344 343 341 340 340 340 340 339 339 340 339 337 335 330 323 320 320 317 314 311 311 310 307 306 303 301 298 294 291 287 282 278 273 273 276 281 284 283 283
49 353 349 347 346 343 341 340 339 342 342 342 341 341 338 335 334 330 322 321 320 315 313 312 310 307 305 304 303 301 297 292 283 277 277 277 273 273 278 288 292 286 283
223 345 348 346 348 348 346 344 341 340 336 337 337 335 333 333 331 327 322 320 318 313 311 309 308 307 306 306 305 305 302 289 275 272 279 284 279 281 287 290 290 292 290
237 342 345 347 346 349 345 338 331 325 325 327 330 330 331 330 327 323 319 317 314 312 309 308 308 305 303 305 306 308 309 305 281 311 295 281 283 292 292 291 293 291 289
221 347 345 342 340 344 342 335 331 327 326 334 335 331 329 326 323 320 317 316 313 311 307 307 306 302 303 302 297 296 299 299 322 297 293 293 301 301 296 295 292 290 287
178 9 334 333 335 342 341 338 339 335 334 333 330 324 324 324 322 321 319 317 314 310 307 306 304 300 298 297 296 289 281 287 290 299 300 302 300 296 295 294 294 290 284
164 233 320 325 332 340 340 339 335 331 329 326 327 324 326 325 324 324 324 321 318 314 310 306 304 299 295 292 292 292 287 283 274 275 289 297 299 296 295 294 291 286 285
172 218 299 317 329 338 338 337 334 331 330 328 329 328 328 326 325 328 329 325 322 319 314 310 305 300 295 291 289 287 284 282 282 283 287 294 297 299 296 292 287 284 285
Height
1626 1624 1622 1620 1617 1614 1611 1607 1603 1600 1596 1593 1589 1585 1582 1579 1575 1572 1569 1566 1564 1561 1559 1556 1554 1552 1550 1549 1547 1546 1544 1543 1542 1541 1540 1540 1539 1539 1538 1538 1537 1537 1536
1626 1624 1622 1620 1617 1614 1610 1606 1602 1599 1595 1591 1588 1584 1580 1577 1574 1570 1567 1564 1561 1558 1556 1553 1551 1549 1547 1545 1543 1542 1541 1539 1538 1537 1537 1537 1537 1536 1536 1536 1535 1535 1535
1626 1624 1622 1619 1616 1613 1609 1605 1601 1598 1594 1590 1586 1583 1579 1575 1572 1569 1565 1562 1559 1556 1553 1550 1548 1545 1543 1541 1539 1538 1536 1535 1534 1534 1534 1534 1534 1534 1533 1533 1533 1533 1533
1626 1624 1621 1618 1615 1612 1608 1604 1600 1596 1593 1589 1585 1582 1578 1574 1571 1567 1563 1560 1557 1554 1551 1548 1545 1542 1539 1537 1535 1533 1531 1530 1529 1530 1530 1529 1529 1530 1530 1530 1530 1530 1530
1625 1623 1621 1618 1614 1611 1607 1603 1599 1595 1592 1588 1584 1581 1577 1573 1569 1566 1562 1558 1555 1552 1548 1545 1542 1539 1536 1533 1531 1528 1526 1525 1524 1525 1525 1524 1525 1525 1525 1525 1526 1526 1527
1625 1623 1620 1617 1614 1610 1606 1602 1598 1594 1591 1587 1583 1580 1576 1572 1568 1564 1561 1557 1553 1549 1546 1542 1539 1536 1532 1529 1527 1524 1521 1519 1519 1519 1519 1519 1519 1519 1519 1520 1521 1522 1523
1624 1622 1619 1616 1612 1608 1604 1601 1597 1593 1590 1586 1582 1578 1575 1571 1567 1563 1559 1555 1551 1547 1543 1539 1536 1532 1529 1526 1523 1520 1517 1514 1513 1513 1512 1513 1513 1513 1514 1514 1515 1517 1518
1624 1621 1618 1615 1611 1607 1603 1599 1596 1592 1588 1584 1580 1577 1573 1569 1565 1561 1557 1553 1549 1545 1540 1536 1532 1528 1525 1522 1519 1515 1512 1509 1508 1507 1506 1506 1506 1506 1507 1508 1509 1510 1512
1623 1620 1617 1614 1610 1606 1602 1598 1594 1590 1586 1582 1578 1574 1571 1567 1563 1558 1554 1550 1546 1541 1537 1533 1528 1524 1520 1516 1514 1511 1508 1505 1503 1501 1499 1499 1499 1499 1500 1501 1502 1503 1505
1622 1619 1616 1612 1609 1605 1600 1596 1592 1589 1585 1581 1577 1573 1569 1564 1560 1556 1551 1547 1542 1538 1533 1529 1524 1520 1515 1511 1508 1505 1502 1500 1498 1495 1493 1492 1491 1492 1493 1494 1495 1496 1498
1621 1618 1615 1611 1607 1603 1599 1595 1591 1588 1584 1580 1575 1571 1567 1562 1557 1553 1548 1543 1538 1533 1529 1524 1519 1515 1510 1506 1502 1499 1496 1494 1491 1489 1487 1485 1484 1484 1484 1486 1487 1488 1490
1619 1616 1613 1609 1605 1601 1597 1593 1590 1586 1582 1577 1573 1568 1563 1559 1554 1548 1543 1539 1534 1529 1524 1519 1514 1510 1505 1501 1498 1494 1490 1487 1484 1482 1480 1478 1477 1476 1476 1477 1478 1480 1482
1618 1615 1611 1607 1604 1599 1595 1592 1588 1584 1579 1575 1570 1565 1560 1555 1550 1544 1539 1534 1529 1524 1519 1513 1509 1505 1500 1496 1492 1489 1485 1481 1477 1475 1473 1471 1470 1468 1468 1468 1470 1472 1474
1616 1613 1610 1606 1602 1598 1594 1590 1586 1581 1577 1572 1567 1562 1557 1551 1546 1541 1536 1530 1525 1520 1514 1509 1504 1500 1495 1491 1487 1483 1479 1475 1471 1467 1464 1464 1462 1461 1460 1460 1461 1463 1465
1614 1611 1608 1604 1600 1596 1592 1588 1584 1579 1575 1570 1565 1559 1554 1548 1543 1537 1532 1527 1521 1516 1511 1505 1500 1495 1490 1485 1481 1477 1473 1469 1465 1461 1457 1455 1454 1453 1452 1452 1453 1454 1457
1612 1610 1606 1602 1598 1594 1590 1586 1582 1577 1573 1568 1562 1557 1551 1545 1539 1533 1528 1522 1517 1512 1506 1501 1495 1490 1485 1480 1475 1471 1466 1462 1458 1454 1451 1447 1446 1445 1444 1443 1444 1446 1448
1610 1608 1604 1600 1596 1592 1588 1584 1580 1576 1571 1565 1559 1553 1547 1541 1535 1529 1523 1518 1513 1508 1502 1496 1491 1486 1480 1475 1469 1464 1460 1455 1451 1447 1444 1441 1439 1438 1436 1436 1436 1438 1439
1608 1605 1602 1598 1594 1591 1587 1583 1578 1573 1568 1562 1556 1550 1544 1538 1532 1526 1520 1515 1509 1504 1498 1493 1487 1481 1476 1470 1464 1458 1453 1448 1444 1440 1437 1434 1433 1431 1430 1429 1428 1429 1430
1605 1603 1599 1596 1592 1589 1585 1581 1576 1571 1565 1559 1553 1547 1541 1535 1528 1522 1517 1511 1506 1500 1495 1489 1484 1478 1471 1465 1459 1452 1447 1442 1437 1433 1430 1428 1427 1425 1424 1423 1422 1421 1421
1603 1600 1597 1593 1590 1586 1583 1579 1574 1568 1563 1556 1550 1544 1538 1531 1525 1519 1514 1508 1502 1497 1491 1486 1480 1474 1468 1461 1454 1447 1441 1435 1430 1427 1425 1423 1422 1420 1419 1418 1416 1415 1415
1600 1597 1594 1591 1587 1583 1579 1575 1570 1564 1559 1552 1546 1540 1534 1528 1522 1516 1511 1505 1499 1493 1487 1482 1476 1469 1463 1458 1451 1442 1435 1429 1425 1422 1420 1418 1417 1415 1414 1412 1411 1410 1409
1597 1595 1591 1588 1584 1580 1576 1571 1566 1560 1554 1548 1543 1537 1531 1525 1519 1513 1507 1502 1496 1489 1483 1478 1472 1465 1459 1455 1449 1441 1433 1426 1420 1418 1416 1414 1412 1411 1409 1407 1406 1404 1403
1594 1591 1588 1585 1581 1577 1573 1568 1563 1557 1552 1547 1540 1534 1528 1522 1516 1510 1504 1498 1492 1486 1479 1473 1468 1461 1455 1450 1447 1442 1435 1426 1421 1415 1413 1411 1409 1406 1404 1402 1400 1399 1398
1590 1588 1585 1581 1578 1574 1570 1565 1559 1554 1548 1543 1536 1531 1525 1519 1514 1508 1501 1495 1489 1482 1475 1469 1463 1457 1451 1445 1441 1438 1434 1429 1424 1415 1411 1408 1405 1402 1400 1397 1395 1393 1392
1586 1584 1582 1578 1575 1571 1567 1562 1557 1551 1546 1540 1534 1528 1522 1517 1511 1505 1499 1492 1485 1478 1471 1464 1458 1452 1446 1441 1437 1433 1429 1425 1421 1417 1409 1404 1401 1398 1395 1393 1390 1388 1387
1583 1581 1578 1575 1572 1568 1564 1559 1554 1548 1543 1537 1531 1525 1519 1513 1508 1502 1496 1489 1482 1475 1467 1460 1453 1447 1441 1437 1432 1428 1425 1421 1417 1413 1408 1402 1398 1394 1391 1388 1385 1384 1382